Showing default

ABS 6 (LMI 1), 25924

Orbit data source: Space-Track

ABS 6 (LMI 1), 25924 is an Emirian payload satellite in GEO that was launched on Sun, 26 Sep 1999 UTC via a PROTON-K/DM-2M launch vehicle from the Tyuratam Missile And Space Complex (TTMTR). Payloads include a variety of satellites, spacecraft, and rockets equipped with specific instruments for various scientific and technological missions. These include communications satellites like Starlink; space stations such as the ISS; scientific satellites like the Hubble; Earth observation satellites from companies like Planet Labs, Umbra, and HawkEye 360; GPS; miniature CubeSats for education and research; and military/defense satellites.

Not visible in the next 10 days
ABS 6 (LMI 1) details
Identifier
25924, 1999-053A
Orbit
GEO
Last TLE update15 hours ago
Origin
Flag of AELMSCV/LMI (AE / ABS)
ManufacturerLMCSS
MissionOperational Commercial Communications
Bus & MotorA2100, LEROS 1C
Mass3,740 kg wet, 1,730 kg dry
Launch date (UTC)
1999-09-26 (25 years ago)
Launch vehicle
PROTON-K/DM-2M
Launch site
Tyuratam Missile And Space Complex (TTMTR)
Object type
Payload
Rocket body
Debris
Shape & HBRBox + 2 Pan, 21 m
Radar Cross Section18.290 m², Large (>1 m²)

Expand to show TLE details & history

TLE from 15 hours ago
0 ABS 6 (LMI 1)
1 25924U 99053A   25035.68604058 -.00000117  00000-0  00000+0 0  9999
2 25924   0.0606 266.8589 0002804  46.8749 227.3232  1.00270895 92848
Epoch: 2025-02-04T16:27Z
Definitive object data (Epoch: 2025-02-04T16:27:53.906Z)
Latitude-0.04275°
Longitude158.99565°
Altitude35,794.384 km
Speed3.074 km/s
True Right ascension12h 04m 13s
True Declination0° 02' 34"
Sunlit
Object was in daylight at TLE epoch
Visualization TLE readout
Latitude0.02971°
Longitude18.17606°
Altitude35,785.615 km
Speed3.075 km/s
Apparent Right ascension02h 14m 53s
Apparent Declination-5° 23' 13"
Sunlit
Object is in daylight
Visualization observer readout
Local Sidereal Time09:04:16
Azimuth273.8° WNW
Elevation-12.916°
Doppler factor1
Orbital elements
Apogee altitude35,799.738 km
Perigee altitude35,776.091 km
Semi-major axis42,166.052 km
Eccentricity0.0002804
Inclination0.0606°
RAAN266.8589°
Arg. of periapsis46.8749°
True anomaly227.29958°
Mean anomaly227.3232°
Eccentric anomaly227.31139°
Mean motion0.25067 °/min
BSTARUnknown
Orbital period1436.16 mins
Loading historical data...
25924 neighbors
Authenticating...
Loading maneuver chart data...
Loading historical data...
Loading historical data...
Loading historical data...
Loading historical data...
Loading historical data...
Loading historical data...
Loading historical data...
Other satellites on launch #53 in the year 1999 (1999-09-26 UTC)

ABS 6 (LMI 1) Visibility forecast

Observer location: undefined°, undefined

ABS 6 (LMI 1) is not visible in the next 10 days
Span
Click to sort rows by Start time (UTC) header in descending order
Start Az.
Max El. time (UTC)
Max El. Az.
Max El.
End time (UTC)
End Az.
|